When you browse on this site, cookies collect data to enhance your experience and personalize the content and advertising you see.
Visit our Privacy Policy to learn more. By continuing to use the site, you agree to this use of cookies and data.
  • In Lithuania
  • List of Countries
  • For 7 days
  • Water Temperature
  • Weather Map
  • Weather Widgets
  • user-avatar
    Login

    Hourly Weather Lankaran

    Today, 17 October, Thursday

    Time Temperature Precipitation Wind Pressure Humidity
    00:00 +10°C° 0 mm 0 mps 637 mmHg 64%
    01:00 +10°C° 0 mm 0 mps 637 mmHg 64%
    02:00 +10°C° 0 mm 0 mps 637 mmHg 64%
    03:00 +9°C° 0 mm 0 mps 637 mmHg 67%
    04:00 +9°C° 0 mm 0 mps 637 mmHg 67%
    05:00 +9°C° 0 mm 0 mps 637 mmHg 67%
    06:00 +9°C° 0 mm 0 mps 637 mmHg 67%
    07:00 +11°C° 0 mm 0 mps 638 mmHg 61%
    08:00 +13°C° 0 mm 1 mps 639 mmHg 56%
    09:00 +15°C° 0 mm 1 mps 640 mmHg 51%
    10:00 +16°C° 0 mm 1 mps 640 mmHg 51%
    11:00 +17°C° 0 mm 2 mps 640 mmHg 51%
    12:00 +18°C° 0 mm 2 mps 640 mmHg 52%
    13:00 +17°C° 0 mm 2 mps 640 mmHg 55%
    14:00 +17°C° 0 mm 2 mps 639 mmHg 59%
    15:00 +16°C° 0 mm 2 mps 639 mmHg 63%
    16:00 +15°C° 0 mm 2 mps 638 mmHg 68%
    17:00 +14°C° 0 mm 1 mps 638 mmHg 73%
    18:00 +13°C° 0 mm 1 mps 638 mmHg 78%
    19:00 +12°C° 0 mm 1 mps 638 mmHg 76%
    20:00 +11°C° 0 mm 0 mps 637 mmHg 75%
    21:00 +11°C° 0 mm 0 mps 637 mmHg 73%
    22:00 +11°C° 0 mm 0 mps 637 mmHg 73%
    23:00 +10°C° 0 mm 0 mps 637 mmHg 72%

    Tomorrow, 18 October, Friday

    Time Temperature Precipitation Wind Pressure Humidity
    00:00 +10°C° 0 mm 0 mps 637 mmHg 71%
    01:00 +10°C° 0 mm 0 mps 636 mmHg 71%
    02:00 +10°C° 0 mm 0 mps 636 mmHg 72%
    03:00 +10°C° 0 mm 0 mps 636 mmHg 72%
    04:00 +9°C° 0 mm 0 mps 636 mmHg 71%
    05:00 +9°C° 0 mm 0 mps 636 mmHg 71%
    06:00 +9°C° 0 mm 0 mps 636 mmHg 71%
    07:00 +11°C° 0 mm 0 mps 636 mmHg 64%
    08:00 +14°C° 0 mm 1 mps 637 mmHg 58%
    09:00 +16°C° 0 mm 1 mps 638 mmHg 51%
    10:00 +18°C° 0 mm 1 mps 638 mmHg 50%
    11:00 +19°C° 0 mm 1 mps 638 mmHg 49%
    12:00 +19°C° 0 mm 2 mps 638 mmHg 47%
    13:00 +18°C° 0 mm 2 mps 637 mmHg 50%
    14:00 +18°C° 0 mm 2 mps 637 mmHg 54%
    15:00 +18°C° 0 mm 2 mps 636 mmHg 57%
    16:00 +17°C° 0 mm 2 mps 636 mmHg 61%
    17:00 +16°C° 0 mm 1 mps 635 mmHg 66%
    18:00 +14°C° 0 mm 1 mps 635 mmHg 70%
    19:00 +13°C° 0 mm 0 mps 635 mmHg 69%
    20:00 +12°C° 0 mm 0 mps 635 mmHg 69%
    21:00 +12°C° 0 mm 0 mps 635 mmHg 68%
    22:00 +12°C° 0 mm 0 mps 635 mmHg 67%
    23:00 +12°C° 0 mm 0 mps 635 mmHg 65%

    Day after tomorrow, 19 October, Saturday

    Time Temperature Precipitation Wind Pressure Humidity
    00:00 +13°C° 0 mm 1 mps 634 mmHg 64%
    01:00 +11°C° 0 mm 0 mps 634 mmHg 64%
    02:00 +11°C° 0 mm 0 mps 634 mmHg 65%
    03:00 +11°C° 0 mm 0 mps 634 mmHg 66%
    04:00 +10°C° 0 mm 0 mps 634 mmHg 66%
    05:00 +10°C° 0 mm 0 mps 634 mmHg 66%
    06:00 +10°C° 0 mm 0 mps 635 mmHg 67%
    07:00 +12°C° 0 mm 0 mps 635 mmHg 60%
    08:00 +15°C° 0 mm 1 mps 636 mmHg 54%
    09:00 +18°C° 0 mm 1 mps 637 mmHg 48%
    10:00 +19°C° 0 mm 1 mps 637 mmHg 47%
    11:00 +18°C° 0 mm 2 mps 638 mmHg 47%
    12:00 +19°C° 0 mm 2 mps 638 mmHg 46%
    13:00 +19°C° 0 mm 2 mps 637 mmHg 50%
    14:00 +18°C° 0 mm 2 mps 637 mmHg 54%
    15:00 +18°C° 0 mm 2 mps 636 mmHg 57%
    16:00 +16°C° 0 mm 2 mps 636 mmHg 64%
    17:00 +15°C° 0 mm 1 mps 636 mmHg 70%
    18:00 +14°C° 0 mm 1 mps 636 mmHg 76%
    19:00 +14°C° 0 mm 1 mps 636 mmHg 76%
    20:00 +13°C° 0 mm 1 mps 636 mmHg 75%
    21:00 +12°C° 0 mm 0 mps 636 mmHg 75%
    22:00 +11°C° 0 mm 0 mps 636 mmHg 75%
    23:00 +11°C° 0 mm 0 mps 636 mmHg 76%

    20 October, Sunday

    Time Temperature Precipitation Wind Pressure Humidity
    00:00 +11°C° 0 mm 0 mps 636 mmHg 77%
    01:00 +10°C° 0 mm 0 mps 636 mmHg 77%
    02:00 +10°C° 0 mm 0 mps 636 mmHg 78%
    03:00 +10°C° 0 mm 0 mps 636 mmHg 78%
    04:00 +10°C° 0 mm 0 mps 636 mmHg 79%
    05:00 +9°C° 0 mm 0 mps 636 mmHg 80%
    06:00 +9°C° 0 mm 0 mps 636 mmHg 81%
    07:00 +11°C° 0 mm 1 mps 637 mmHg 75%
    08:00 +13°C° 0 mm 1 mps 637 mmHg 69%
    09:00 +14°C° 0 mm 1 mps 638 mmHg 64%
    10:00 +15°C° 0 mm 2 mps 638 mmHg 61%
    11:00 +16°C° 0 mm 2 mps 638 mmHg 58%
    12:00 +16°C° 0 mm 3 mps 638 mmHg 55%
    13:00 +16°C° 0.1 mm 3 mps 638 mmHg 59%
    14:00 +14°C° 0.1 mm 3 mps 637 mmHg 62%
    15:00 +14°C° 0.1 mm 3 mps 637 mmHg 66%
    16:00 +13°C° 0 mm 3 mps 637 mmHg 72%
    17:00 +12°C° 0 mm 2 mps 636 mmHg 78%
    18:00 +11°C° 0 mm 1 mps 636 mmHg 84%
    19:00 +11°C° 0 mm 1 mps 636 mmHg 78%
    20:00 +10°C° 0 mm 1 mps 636 mmHg 73%
    21:00 +10°C° 0 mm 1 mps 637 mmHg 68%
    22:00 +9°C° 0 mm 0 mps 636 mmHg 66%
    23:00 +9°C° 0 mm 0 mps 636 mmHg 65%

    21 October, Monday

    Time Temperature Precipitation Wind Pressure Humidity
    00:00 +8°C° 0 mm 0 mps 636 mmHg 63%
    01:00 +8°C° 0 mm 0 mps 636 mmHg 64%
    02:00 +8°C° 0 mm 0 mps 636 mmHg 64%
    03:00 +8°C° 0 mm 0 mps 636 mmHg 65%
    04:00 +8°C° 0 mm 1 mps 636 mmHg 66%
    05:00 +8°C° 0 mm 1 mps 636 mmHg 68%
    06:00 +8°C° 0 mm 1 mps 636 mmHg 69%
    07:00 +9°C° 0 mm 1 mps 637 mmHg 65%
    08:00 +11°C° 0 mm 1 mps 637 mmHg 61%
    09:00 +12°C° 0 mm 1 mps 638 mmHg 57%
    10:00 +13°C° 0 mm 2 mps 638 mmHg 55%
    11:00 +14°C° 0 mm 2 mps 638 mmHg 52%
    12:00 +14°C° 0 mm 3 mps 638 mmHg 50%
    13:00 +13°C° 0 mm 3 mps 638 mmHg 55%
    14:00 +13°C° 0 mm 3 mps 637 mmHg 60%
    15:00 +12°C° 0 mm 3 mps 637 mmHg 64%
    16:00 +12°C° 0 mm 2 mps 637 mmHg 71%
    17:00 +10°C° 0 mm 2 mps 636 mmHg 77%
    18:00 +9°C° 0 mm 1 mps 636 mmHg 83%
    19:00 +9°C° 0 mm 1 mps 636 mmHg 77%
    20:00 +9°C° 0 mm 1 mps 636 mmHg 71%
    21:00 +9°C° 0 mm 1 mps 636 mmHg 65%
    22:00 +9°C° 0 mm 1 mps 636 mmHg 63%
    23:00 +7°C° 0 mm 0 mps 636 mmHg 60%

    22 October, Tuesday

    Time Temperature Precipitation Wind Pressure Humidity
    00:00 +7°C° 0 mm 0 mps 636 mmHg 57%
    01:00 +7°C° 0 mm 0 mps 635 mmHg 57%
    02:00 +7°C° 0 mm 0 mps 635 mmHg 57%
    03:00 +6°C° 0 mm 0 mps 635 mmHg 58%
    04:00 +6°C° 0 mm 0 mps 635 mmHg 59%
    05:00 +6°C° 0 mm 0 mps 635 mmHg 61%
    06:00 +6°C° 0 mm 0 mps 635 mmHg 63%
    07:00 +8°C° 0 mm 1 mps 636 mmHg 60%
    08:00 +10°C° 0 mm 1 mps 637 mmHg 57%
    09:00 +11°C° 0 mm 1 mps 638 mmHg 54%
    10:00 +12°C° 0 mm 1 mps 638 mmHg 54%
    11:00 +13°C° 0 mm 2 mps 638 mmHg 54%
    12:00 +14°C° 0 mm 2 mps 638 mmHg 54%
    13:00 +13°C° 0 mm 2 mps 637 mmHg 59%
    14:00 +13°C° 0 mm 2 mps 637 mmHg 64%
    15:00 +13°C° 0 mm 2 mps 637 mmHg 70%
    16:00 +12°C° 0.1 mm 2 mps 636 mmHg 75%
    17:00 +11°C° 0.1 mm 1 mps 636 mmHg 79%
    18:00 +10°C° 0.1 mm 1 mps 636 mmHg 84%
    19:00 +9°C° 0 mm 0 mps 636 mmHg 84%
    20:00 +9°C° 0 mm 0 mps 636 mmHg 84%
    21:00 +9°C° 0 mm 0 mps 636 mmHg 83%
    22:00 +9°C° 0 mm 0 mps 636 mmHg 84%
    23:00 +8°C° 0 mm 0 mps 636 mmHg 84%
    Show more